Time,TemperatureF,DewpointF,PressureIn,WindDirection,WindDirectionDegrees,WindSpeedMPH,WindSpeedGustMPH,Humidity,HourlyPrecipIn,Conditions,Clouds,dailyrainin,SoftwareType,DateUTC
2013-10-12 12:25:00,66.7,52.0,30.29,NE,46,1.0,3.0,60,0.00,,,0.00,weatherlink.com 1.10,2013-10-12 16:25:00,
2013-10-12 12:40:00,67.5,52.0,30.29,ESE,115,1.0,2.0,59,0.00,,,0.00,weatherlink.com 1.10,2013-10-12 16:40:00,
2013-10-12 12:55:00,67.7,53.0,30.28,East,95,1.0,3.0,60,0.00,,,0.00,weatherlink.com 1.10,2013-10-12 16:55:00,
2013-10-12 13:10:00,67.3,53.0,30.28,SW,230,2.0,3.0,60,0.00,,,0.00,weatherlink.com 1.10,2013-10-12 17:10:00,
2013-10-12 13:25:00,67.1,53.0,30.27,SSW,213,0.0,3.0,61,0.00,,,0.00,weatherlink.com 1.10,2013-10-12 17:25:00,
2013-10-12 13:40:00,66.2,52.0,30.28,SE,140,0.0,2.0,61,0.00,,,0.00,weatherlink.com 1.10,2013-10-12 17:40:00,
2013-10-12 13:55:00,65.4,53.0,30.28,SE,132,0.0,1.0,64,0.00,,,0.00,weatherlink.com 1.10,2013-10-12 17:55:00,
2013-10-12 14:10:00,64.9,53.0,30.28,SE,132,0.0,0.0,65,0.00,,,0.00,weatherlink.com 1.10,2013-10-12 18:10:00,
2013-10-12 14:25:00,64.5,53.0,30.28,SE,132,0.0,0.0,67,0.00,,,0.00,weatherlink.com 1.10,2013-10-12 18:25:00,
2013-10-12 14:40:00,65.2,53.0,30.27,ENE,69,1.0,2.0,64,0.00,,,0.00,weatherlink.com 1.10,2013-10-12 18:40:00,
2013-10-12 14:55:00,65.7,54.0,30.27,SSE,163,1.0,4.0,65,0.00,,,0.00,weatherlink.com 1.10,2013-10-12 18:55:00,
2013-10-12 15:10:00,66.2,53.0,30.27,SW,221,1.0,3.0,63,0.00,,,0.00,weatherlink.com 1.10,2013-10-12 19:10:00,
2013-10-12 15:25:00,66.2,53.0,30.27,WSW,244,2.0,3.0,63,0.00,,,0.00,weatherlink.com 1.10,2013-10-12 19:25:00,
2013-10-12 15:40:00,66.4,53.0,30.27,West,272,0.0,1.0,63,0.00,,,0.00,weatherlink.com 1.10,2013-10-12 19:40:00,
2013-10-12 15:55:00,65.9,54.0,30.27,ESE,113,0.0,5.0,66,0.00,,,0.00,weatherlink.com 1.10,2013-10-12 19:55:00,
2013-10-12 16:10:00,64.8,54.0,30.27,NE,36,0.0,2.0,69,0.00,,,0.00,weatherlink.com 1.10,2013-10-12 20:10:00,
2013-10-12 16:25:00,63.7,54.0,30.27,ENE,69,0.0,0.0,71,0.00,,,0.00,weatherlink.com 1.10,2013-10-12 20:25:00,
2013-10-12 16:40:00,62.6,54.0,30.28,NNW,332,0.0,0.0,73,0.00,,,0.00,weatherlink.com 1.10,2013-10-12 20:40:00,
2013-10-12 16:55:00,61.8,53.0,30.28,NE,47,0.0,0.0,74,0.00,,,0.00,weatherlink.com 1.10,2013-10-12 20:55:00,
2013-10-12 17:10:00,60.7,53.0,30.29,SSE,155,0.0,0.0,75,0.00,,,0.00,weatherlink.com 1.10,2013-10-12 21:10:00,
2013-10-12 17:25:00,59.4,52.0,30.29,SE,144,0.0,1.0,77,0.00,,,0.00,weatherlink.com 1.10,2013-10-12 21:25:00,
2013-10-12 17:40:00,58.2,52.0,30.30,SE,125,0.0,1.0,80,0.00,,,0.00,weatherlink.com 1.10,2013-10-12 21:40:00,
2013-10-12 17:55:00,56.9,52.0,30.30,SE,125,0.0,0.0,82,0.00,,,0.00,weatherlink.com 1.10,2013-10-12 21:55:00,
2013-10-12 18:10:00,55.6,51.0,30.30,SE,125,0.0,0.0,84,0.00,,,0.00,weatherlink.com 1.10,2013-10-12 22:10:00,
2013-10-12 18:25:00,54.5,50.0,30.30,SE,126,0.0,0.0,86,0.00,,,0.00,weatherlink.com 1.10,2013-10-12 22:25:00,
2013-10-12 18:40:00,53.5,50.0,30.30,SE,125,0.0,0.0,87,0.00,,,0.00,weatherlink.com 1.10,2013-10-12 22:40:00,
2013-10-12 18:55:00,52.6,50.0,30.31,SE,126,0.0,1.0,89,0.00,,,0.00,weatherlink.com 1.10,2013-10-12 22:55:00,
2013-10-12 19:10:00,51.9,49.0,30.32,East,84,0.0,2.0,90,0.00,,,0.00,weatherlink.com 1.10,2013-10-12 23:10:00,
2013-10-12 19:25:00,51.0,49.0,30.32,East,84,0.0,2.0,92,0.00,,,0.00,weatherlink.com 1.10,2013-10-12 23:25:00,
2013-10-12 19:40:00,50.3,48.0,30.32,East,84,0.0,1.0,93,0.00,,,0.00,weatherlink.com 1.10,2013-10-12 23:40:00,
2013-10-12 19:56:00,49.5,48.0,30.33,East,84,1.0,1.0,94,0.00,,,0.00,weatherlink.com 1.10,2013-10-12 23:56:00,
2013-10-12 20:11:00,49.2,48.0,30.33,East,83,0.0,1.0,95,0.00,,,0.00,weatherlink.com 1.10,2013-10-13 00:11:00,
2013-10-12 20:26:00,48.9,48.0,30.33,East,84,0.0,1.0,95,0.00,,,0.00,weatherlink.com 1.10,2013-10-13 00:26:00,
2013-10-12 20:41:00,48.8,48.0,30.34,East,84,1.0,1.0,96,0.00,,,0.00,weatherlink.com 1.10,2013-10-13 00:41:00,
2013-10-12 20:56:00,48.3,47.0,30.34,East,80,0.0,2.0,96,0.00,,,0.00,weatherlink.com 1.10,2013-10-13 00:56:00,
2013-10-12 21:11:00,48.5,48.0,30.34,East,80,0.0,1.0,97,0.00,,,0.00,weatherlink.com 1.10,2013-10-13 01:11:00,
2013-10-12 21:26:00,48.3,47.0,30.34,East,81,1.0,2.0,96,0.00,,,0.00,weatherlink.com 1.10,2013-10-13 01:26:00,
2013-10-12 21:41:00,47.7,47.0,30.35,East,81,1.0,1.0,96,0.00,,,0.00,weatherlink.com 1.10,2013-10-13 01:41:00,
2013-10-12 21:56:00,47.7,47.0,30.35,East,79,1.0,2.0,97,0.00,,,0.00,weatherlink.com 1.10,2013-10-13 01:56:00,
2013-10-12 22:11:00,48.4,48.0,30.36,East,80,0.0,1.0,97,0.00,,,0.00,weatherlink.com 1.10,2013-10-13 02:11:00,
2013-10-12 22:26:00,48.9,48.0,30.36,East,79,0.0,0.0,97,0.00,,,0.00,weatherlink.com 1.10,2013-10-13 02:26:00,
2013-10-12 22:41:00,49.3,49.0,30.36,East,79,0.0,0.0,97,0.00,,,0.00,weatherlink.com 1.10,2013-10-13 02:41:00,
2013-10-12 22:56:00,49.7,49.0,30.36,East,79,0.0,1.0,96,0.00,,,0.00,weatherlink.com 1.10,2013-10-13 02:56:00,
2013-10-12 23:11:00,49.7,49.0,30.36,East,80,0.0,0.0,96,0.00,,,0.00,weatherlink.com 1.10,2013-10-13 03:11:00,
2013-10-12 23:26:00,49.2,48.0,30.36,East,79,0.0,0.0,95,0.00,,,0.00,weatherlink.com 1.10,2013-10-13 03:26:00,
2013-10-12 23:41:00,49.0,48.0,30.36,East,79,0.0,0.0,96,0.00,,,0.00,weatherlink.com 1.10,2013-10-13 03:41:00,
2013-10-12 23:56:00,49.1,48.0,30.37,East,80,0.0,1.0,97,0.00,,,0.00,weatherlink.com 1.10,2013-10-13 03:56:00,